Regional Weather Roundup
Issued by NWS

Home | Current Version | Previous Version | Graphics & Text | Print | Product List | Glossary On
Versions: 1 2 3 4 5 6 7 8 9 10 11 12 13 14 15 16 17 18 19 20 21 22 23 24 25 26 27 28 29 30 31 32 33 34 35 36 37 38 39 40 41 42 43 44 45 46 47 48 49 50
000
ASUS43 KLOT 171710
RWRIL

ILLINOIS REGIONAL WEATHER ROUNDUP
NATIONAL WEATHER SERVICE CHICAGO/ROMEOVILLE IL
1100 AM CST WED DEC 17 2014

NOTE: "FAIR" INDICATES FEW OR NO CLOUDS BELOW 12,000 FEET WITH NO
SIGNIFICANT WEATHER AND/OR OBSTRUCTIONS TO VISIBILITY.

* THESE STATIONS ARE NOT UNDER NWS QUALITY CONTROL. THEY ALSO MAY NOT
  REPORT WEATHER SUCH AS PRECIPITATION OR FOG.

ILZ001-002-007-009-015-016-024-171800-
NORTHWEST ILLINOIS

CITY           SKY/WX    TMP DP  RH WIND       PRES   REMARKS
MOLINE         PTSUNNY   24  16  71 W10       30.32F WCI  14
STERLING*      CLOUDY    25  18  74 W12G17    30.29F WCI  14
SAVANNA*       CLOUDY    24  17  76 W10       30.30S WCI  13
$$

ILZ003-004-008-010-011-017-018-171800-
NORTH CENTRAL ILLINOIS

CITY           SKY/WX    TMP DP  RH WIND       PRES   REMARKS
ROCKFORD       CLOUDY    24  16  71 W16       30.27F WCI  11
FREEPORT*      CLOUDY    23  17  78 W13       30.28F WCI  12
ROCHELLE*      CLOUDY    24  18  77 NW10      30.27F WCI  14
DE KALB*       CLOUDY    24  18  79 NW13G21   30.25S WCI  12
PERU*          CLOUDY    26  20  77 W9        30.30S WCI  17
$$

ILZ005-006-012>014-019>023-171800-
NORTHEAST ILLINOIS

CITY           SKY/WX    TMP DP  RH WIND       PRES   REMARKS
CHICAGO-OHARE  CLOUDY    26  17  68 W12       30.24R WCI  16
CHICAGO-MIDWAY CLOUDY    28  17  63 W14       30.25S WCI  17
AURORA         CLOUDY    26  17  68 NW16      30.27R WCI  14
LANSING*       CLOUDY    26  19  74 W14       30.25F WCI  14
WAUKEGAN       CLOUDY    26  17  68 W8        30.21F WCI  18
DUPAGE AIRPORT CLOUDY    26  17  68 W14       30.24S WCI  14
KANKAKEE*      CLOUDY    26  20  81 W15       30.28F WCI  13
WHEELING       CLOUDY    26  16  65 W13       30.25S WCI  15
MORRIS*        CLOUDY    27  20  77 W15       30.27F WCI  15
ROMEOVILLE*    CLOUDY    27  19  71 NW14G21   30.26S WCI  15
NORTHERLY ISL    N/A     27  17  66 NW10        N/A  WCI  17
$$

LMZ740>746-171800-
SOUTHERN LAKE MICHIGAN

STATION/POSITION SKY/WX   TEMP    WIND        PRES    VSBY  WAVE
                          AIR SEA DIR/SP/G                  HT/PER
                          (F)     (DEG/KT/KT) (MB)    (MI)  (FT/S)
WAUKEGAN HARBOR            26     290/ 13/ 21   N/A
HARRISON CRIB              26     290/ 15/ 17   N/A
BURNHAM HARBOR             27     280/  8/ 12   N/A
CALUMET HARBOR             26     250/  6/ 11 1023.0F
$$

ILZ025>027-034>036-040-047-049-050-058-095>099-171800-
WEST-CENTRAL ILLINOIS

CITY           SKY/WX    TMP DP  RH WIND       PRES   REMARKS
QUINCY         CLOUDY    22  16  78 NW9       30.34F WCI  12
GALESBURG*     CLOUDY    23  19  83 W10       30.32F WCI  12
MACOMB*        CLOUDY    22  18  85 NW8       30.36F WCI  13
JACKSONVILLE*  CLOUDY    26  20  78 NW9       30.34S WCI  17
PITTSFIELD*    CLOUDY    27  22  80 NW5       30.34F WCI  22
$$

ILZ028>032-037-038-041>044-048-051>054-059>061-171800-
CENTRAL ILLINOIS

CITY           SKY/WX    TMP DP  RH WIND       PRES   REMARKS
PONTIAC        CLOUDY    26  20  80 NW13G18   30.30F WCI  14
BLOOMINGTON    CLOUDY    22  18  85 W7        30.30F WCI  14
DECATUR        CLOUDY    24  19  81 NW9       30.31F WCI  14
PEORIA         CLOUDY    24  15  68 W8        30.33F WCI  15
LACON*         CLOUDY    24  17  73 W8        30.31F WCI  16
LINCOLN*       CLOUDY    24  19  80 W7        30.34F WCI  16
SPRINGFIELD    CLOUDY    25  18  74 NW8       30.33F WCI  16
TAYLORVILLE    CLOUDY    27  21  80 W10       30.33S WCI  17
$$

ILZ033-039-045-046-055>057-062-063-171800-
EAST-CENTRAL ILLINOIS

CITY           SKY/WX    TMP DP  RH WIND       PRES   REMARKS
CHAMPAIGN      CLOUDY    23  18  81 NW14      30.30F WCI  11
DANVILLE*      CLOUDY    23  19  86 NW12      30.26F WCI  12
RANTOUL*       CLOUDY    25  20  83 NW12      30.29F WCI  14
MATTOON        CLOUDY    26  19  74 NW8       30.30F WCI  18
PARIS*         CLOUDY    25  22  89 NW10      30.31F WCI  14
$$

ILZ079-100>102-171800-
SOUTHWEST ILLINOIS

CITY           SKY/WX    TMP DP  RH WIND       PRES   REMARKS
BELLEVILLE     MOSUNNY   36  26  65 VRB6      30.33F WCI  31
CAHOKIA*       MOSUNNY   35  24  64 SW6       30.34F WCI  30
SPARTA*        PTSUNNY   32  24  74 CALM      30.35F
$$

ILZ064>066-069>071-074>076-080>082-084>086-088>090-092>094-171800-
SOUTH-CENTRAL ILLINOIS

CITY           SKY/WX    TMP DP  RH WIND       PRES   REMARKS
CARBONDALE     CLOUDY    32  24  72 W5        30.35F WCI  27
CAIRO*         MOSUNNY   38  28  67 N3        30.35F
EFFINGHAM*     CLOUDY    29  22  75 W9        30.34F WCI  21
MARION         CLOUDY    34  25  69 NW9       30.35F WCI  26
MT. VERNON     CLOUDY    34  23  64 CALM      30.34S
CENTRALIA*     CLOUDY    32  25  75 W6        30.33F WCI  26
SALEM*         CLOUDY    34  27  75 W9        30.33F WCI  26
METROPOLIS*    MOSUNNY   35  28  73 CALM      30.33F
$$

ILZ067-068-072-073-078-083-087-091-171800-
SOUTHEAST ILLINOIS

CITY           SKY/WX    TMP DP  RH WIND       PRES   REMARKS
LAWRENCEVILLE  CLOUDY    30  23  75 W8        30.33F WCI  22
FLORA*         PTSUNNY   31  25  79 W7        30.34F WCI  24
FAIRFIELD*     CLOUDY    32  25  74 W3        30.32F
HARRISBURG*    CLOUDY    33  25  74 CALM      30.35F
ROBINSON*      CLOUDY    29  24  82 NW7       30.34F WCI  22
CARMI*         CLOUDY    34  29  80 NW6       30.33F WCI  29
$$

ABBREVIATIONS USED IN REMARKS
   TC - TEMPERATURE IN CELSIUS
  WCI - WIND CHILL INDEX
   HX - HEAT INDEX
  VSB - VISIBILITY
$$




USA.gov is the U.S. government's official web portal to all federal, state and local government web resources and services.